Tracking 22100 objects as of 19-Jan-2021
HD Live streaming from Space Station
objects crossing your sky now

STARLINK-1133

Track STARLINK-1133 now!
10-day predictions
STARLINK-1133 is classified as:


NORAD ID: 45064
Int'l Code: 2020-006W
Perigee: 556.2 km
Apogee: 557.6 km
Inclination: 53.0 °
Period: 95.6 minutes
Semi major axis: 6927 km
RCS: Unknown
Launch date: January 29, 2020
Source: United States (US)
Launch site: AIR FORCE EASTERN TEST RANGE (AFETR)
aabbcc
Your satellite tracking list
Your tracking list is empty




NASA's NSSDC Master Catalog

Two Line Element Set (TLE):
1 45064U 20006W   21018.80487602  .00000247  00000-0  36079-4 0  9996
2 45064  53.0000  47.7812 0001038  92.7018 267.4089 15.05577463 54005
Source of the keplerian elements: AFSPC